Temperature
2 2 2 3 3 3 3 4 4 4 4 5 5 5 5 5 6 6 6 6 6 6 6 6 6 6 6 6 6 6 6 6 6 6 6 6 6 6
1 2 2 2 2 3 3 3 3 4 4 4 4 5 5 5 5 5 5 5 6 6 6 6 6 6 6 6 6 6 6 6 6 6 6 6 6 6
1 1 1 1 2 2 2 3 3 3 3 3 4 4 4 4 4 4 4 5 5 5 5 5 5 5 5 5 5 6 5 5 5 5 5 5 5 5
-0 0 1 1 1 1 2 2 2 3 3 3 3 3 3 4 4 4 4 4 4 4 4 5 5 5 5 5 5 5 5 5 5 5 5 5 5 5
-1 -1 -0 0 0 1 1 1 2 2 2 2 2 3 3 3 3 3 3 3 3 4 4 4 4 4 4 4 4 4 4 4 4 4 4 4 4 4
-2 -1 -1 -1 -0 0 1 1 1 1 2 2 2 2 2 2 2 2 2 3 3 3 3 3 3 4 4 4 4 4 4 4 4 4 4 4 3 3
-2 -2 -2 -1 -1 -1 -0 0 0 1 1 1 1 1 1 1 1 1 1 2 2 2 2 3 3 3 3 3 3 3 3 3 3 3 3 3 3 3
-3 -3 -3 -2 -2 -1 -1 -1 -0 -0 -0 0 1 1 1 1 1 1 1 1 1 1 2 2 2 2 2 3 3 3 3 3 3 3 2 2 2 2
-4 -3 -3 -3 -3 -2 -2 -1 -1 -1 -1 -0 -0 0 0 0 0 0 0 0 0 1 1 1 1 1 2 2 2 2 2 2 2 2 2 2 2 2
-4 -4 -4 -3 -3 -3 -3 -2 -2 -2 -1 -1 -1 -0 -0 -0 -0 -0 -0 -0 -0 0 0 -0 0 1 1 1 2 2 2 2 2 2 2 1 1 1
-5 -4 -4 -4 -4 -3 -3 -3 -3 -2 -2 -2 -2 -1 -1 -1 -1 -1 -1 -1 -1 -1 -1 -1 -0 -0 0 1 1 1 1 1 1 1 1 1 1 1
-5 -5 -4 -4 -4 -4 -4 -4 -3 -3 -3 -2 -2 -2 -2 -2 -2 -2 -2 -2 -2 -2 -2 -1 -1 -1 -1 -0 0 0 1 1 1 1 1 0 0 -0
-5 -5 -5 -5 -5 -4 -4 -4 -4 -4 -3 -3 -3 -3 -2 -2 -2 -2 -2 -2 -2 -2 -2 -2 -2 -2 -2 -2 -1 -0 -0 -0 -0 0 0 -0 -0 -1
-6 -6 -6 -5 -5 -5 -5 -5 -5 -4 -4 -4 -4 -3 -3 -3 -3 -3 -3 -3 -3 -3 -2 -2 -2 -2 -2 -2 -2 -1 -1 -1 -1 -1 -1 -1 -1 -1
-6 -6 -6 -6 -6 -6 -5 -5 -5 -5 -5 -5 -4 -4 -4 -4 -4 -4 -4 -3 -3 -3 -3 -3 -3 -3 -3 -3 -2 -2 -2 -2 -2 -2 -2 -1 -1 -1
-7 -7 -6 -6 -6 -6 -6 -6 -6 -6 -6 -5 -5 -5 -5 -5 -4 -4 -4 -4 -4 -4 -3 -3 -3 -3 -3 -3 -3 -3 -3 -3 -2 -2 -2 -2 -2 -2
-7 -7 -7 -7 -7 -7 -7 -7 -7 -6 -6 -6 -6 -6 -5 -5 -5 -5 -5 -5 -5 -5 -4 -4 -4 -4 -4 -4 -4 -3 -3 -3 -3 -3 -3 -3 -3 -3
-8 -8 -8 -8 -8 -8 -8 -7 -7 -7 -7 -7 -6 -6 -6 -6 -6 -6 -6 -6 -6 -6 -5 -5 -5 -5 -5 -4 -4 -4 -4 -4 -4 -4 -4 -4 -3 -3
-8 -8 -8 -8 -8 -8 -8 -8 -8 -8 -8 -7 -7 -7 -7 -6 -6 -6 -6 -6 -6 -6 -6 -6 -6 -6 -6 -6 -5 -5 -5 -5 -4 -4 -4 -4 -4 -4
-9 -9 -9 -9 -9 -9 -9 -9 -8 -8 -8 -8 -8 -8 -7 -7 -7 -7 -7 -7 -7 -7 -7 -7 -7 -6 -6 -6 -6 -5 -5 -5 -5 -5 -5 -5 -5 -4
-10 -10 -10 -10 -10 -9 -9 -9 -9 -8 -8 -8 -8 -8 -8 -8 -8 -8 -8 -7 -7 -7 -7 -7 -7 -7 -7 -7 -7 -6 -6 -6 -6 -6 -5 -5 -5 -5
-10 -10 -10 -10 -10 -10 -10 -9 -9 -9 -9 -9 -9 -9 -9 -8 -8 -8 -8 -8 -8 -8 -8 -8 -8 -8 -8 -8 -7 -7 -7 -6 -6 -6 -6 -6 -6 -6
-11 -11 -11 -10 -10 -10 -10 -10 -10 -10 -10 -10 -10 -9 -9 -9 -9 -9 -9 -9 -9 -9 -9 -9 -8 -8 -8 -8 -8 -8 -7 -7 -7 -7 -6 -6 -6 -6
Wind_Speed
8 8 7 7 7 7 7 7 7 7 7 5 4 5 5 5 5 6 7 7 9 9 9 8 8 8 8 7 7 7 8 9 9 9 9 9 10 10
6 8 8 7 7 7 7 7 8 8 7 6 5 5 5 5 6 6 7 7 9 10 9 9 8 9 8 8 8 7 8 9 9 10 10 9 9 11
7 7 7 7 7 7 7 7 7 8 8 6 5 5 6 6 5 6 6 6 7 9 9 9 9 9 9 9 9 9 9 9 9 10 10 10 10 9
8 7 8 6 7 6 6 7 8 8 7 7 6 5 6 6 6 6 5 6 7 8 9 10 10 10 10 10 10 9 10 10 10 10 10 10 10 10
7 7 8 7 7 6 6 7 7 7 6 6 6 5 4 4 5 5 6 5 6 7 9 9 10 11 11 11 10 10 10 11 11 11 10 10 10 10
7 7 7 7 7 7 6 7 6 7 7 7 6 5 5 4 5 5 5 5 5 5 7 8 9 10 11 11 11 11 11 11 11 10 10 10 10 10
7 7 7 7 8 7 6 6 7 6 7 7 7 6 5 5 6 5 6 5 5 5 5 6 7 7 8 10 11 11 10 10 11 11 11 11 11 11
7 7 7 8 8 9 9 9 8 8 8 7 7 8 8 6 6 6 5 5 5 4 5 6 5 6 7 8 10 11 11 11 11 11 11 11 12 12
8 7 6 6 8 7 8 9 9 9 9 9 9 9 8 8 7 7 7 7 6 4 5 7 6 7 7 9 10 11 12 12 12 12 12 12 13 13
7 8 8 7 7 7 7 7 8 8 8 8 9 9 8 7 8 8 8 7 6 5 5 6 6 6 6 8 11 13 13 13 13 13 13 13 13 13
7 7 8 8 8 9 7 7 8 7 7 9 10 9 9 9 8 6 6 6 6 5 5 5 4 5 6 7 8 12 13 13 13 13 13 13 13 13
6 7 8 8 8 9 7 7 8 7 6 6 7 7 7 8 9 9 8 7 6 5 5 5 4 3 4 4 5 7 9 11 13 13 13 13 13 10
6 6 6 8 9 9 9 7 8 8 7 6 6 6 5 5 5 6 7 7 7 6 5 4 4 4 4 4 4 6 7 7 8 10 12 13 13 11
7 6 6 8 9 9 8 7 8 8 6 5 5 5 5 5 5 6 6 7 7 8 7 6 4 5 5 6 5 4 5 6 7 7 8 11 13 15
7 8 9 9 8 7 8 8 7 6 5 6 6 6 6 6 5 5 5 6 6 7 8 8 6 6 6 7 6 6 5 5 6 6 6 7 8 8
6 6 7 7 6 6 6 5 5 5 5 6 6 6 5 5 5 5 5 5 5 5 6 7 7 7 7 7 7 7 6 5 5 6 6 7 8 9
5 4 3 4 4 4 4 4 4 4 5 5 5 5 5 5 5 4 4 4 5 6 5 4 4 5 6 7 7 7 6 6 6 6 6 7 7 7
4 3 4 4 4 4 4 4 4 4 4 4 4 5 5 5 5 4 4 4 5 5 5 5 4 4 4 5 7 7 7 6 6 6 5 6 8 7
3 3 4 4 4 4 4 5 5 4 4 4 4 4 4 4 4 4 4 5 5 5 5 4 4 4 6 7 5 6 7 6 5 6 6 6 7 7
4 4 4 4 4 4 4 4 4 4 4 4 4 4 4 4 4 4 5 5 5 5 5 5 5 5 6 6 6 6 7 7 6 7 6 5 6 7
4 4 4 4 4 4 4 4 4 4 4 4 4 4 4 4 4 4 5 6 6 5 6 6 5 5 4 4 5 6 5 7 8 6 6 5 6 6
5 5 5 5 5 4 4 4 4 4 4 4 4 4 4 4 4 5 5 5 4 5 5 5 4 4 4 6 7 7 7 6 6 8 9 8 6 6
5 5 5 5 5 4 4 5 5 4 4 4 4 4 4 4 5 5 5 4 4 4 5 5 4 4 5 5 6 6 7 6 5 5 6 7 9 10
Wind_Direction
252 252 252 251 249 248 241 237 239 237 236 232 223 226 238 241 240 240 248 242 239 239 245 250 250 243 236 232 235 240 237 236 234 237 236 234 233 235
258 252 251 252 250 247 241 241 242 240 240 235 235 235 234 243 235 239 247 253 243 240 242 243 244 241 235 233 233 240 240 233 232 236 234 236 240 237
261 257 257 256 251 250 245 241 241 240 242 246 240 233 229 235 238 238 243 248 250 241 243 243 239 241 238 235 234 237 240 234 233 237 235 237 240 243
263 262 261 259 255 257 254 247 244 240 239 243 244 238 236 231 235 236 245 246 252 247 242 242 241 243 242 237 234 233 235 234 233 233 233 236 239 244
263 261 261 257 257 257 256 256 250 244 238 237 245 241 240 234 236 240 244 247 254 253 241 241 244 245 246 238 233 234 233 234 234 231 231 236 239 244
263 262 261 258 258 261 255 256 249 245 240 233 239 240 236 233 228 235 248 249 254 258 248 250 249 246 244 239 236 234 231 231 232 232 232 235 237 244
264 262 262 263 264 263 262 260 248 242 241 233 234 238 238 227 228 234 244 253 255 245 245 247 247 246 243 239 235 232 231 234 235 236 237 239 239 242
264 263 264 261 264 267 269 269 259 242 239 237 235 234 235 236 236 236 243 248 253 228 240 253 246 248 246 241 239 234 235 238 241 241 241 241 243 243
267 265 266 267 267 265 266 266 266 262 252 247 241 236 236 232 233 236 237 242 253 249 243 252 247 248 250 244 236 233 234 235 236 240 243 245 245 244
267 264 264 265 264 266 263 262 262 259 255 253 256 252 245 237 232 235 241 252 267 254 241 254 249 252 254 248 234 231 233 234 238 243 247 247 246 246
268 265 264 264 265 264 261 261 266 271 267 260 264 265 259 251 243 235 234 239 256 254 236 243 255 269 260 251 239 226 230 235 240 245 247 248 246 246
274 269 263 265 265 262 258 257 260 265 269 268 264 264 258 250 245 234 230 236 248 252 237 233 249 260 258 247 237 233 233 237 239 243 246 247 244 245
276 276 271 269 265 265 264 260 262 269 267 267 264 261 254 249 251 253 245 238 241 250 236 230 249 248 254 268 259 245 242 244 243 247 246 245 243 244
279 276 275 273 270 268 267 267 272 274 264 261 260 256 253 252 252 256 257 255 254 257 250 241 250 245 258 272 272 253 244 248 246 248 248 247 246 245
283 280 280 277 275 268 264 268 268 264 259 255 256 256 254 252 250 254 259 258 264 267 258 252 246 242 247 261 266 266 268 259 246 249 249 250 250 250
288 284 281 277 275 274 269 263 261 262 262 259 260 261 256 250 245 245 252 253 258 269 269 259 248 239 249 259 261 262 261 254 247 251 255 258 252 245
303 293 285 284 281 277 278 277 270 267 267 261 256 256 251 245 247 248 251 256 258 263 270 271 265 258 256 256 259 261 262 267 263 256 257 260 260 254
308 284 280 276 276 278 280 283 278 271 266 263 261 258 253 249 249 250 247 248 254 259 265 270 269 275 275 270 247 253 258 265 271 265 257 259 264 263
299 287 286 282 281 278 277 279 276 272 270 264 260 263 264 258 250 246 247 248 255 259 264 264 262 259 260 268 265 240 253 265 267 268 260 266 267 268
307 294 292 292 291 289 285 281 278 274 272 270 268 265 264 261 258 251 249 250 253 263 263 258 252 253 256 268 280 284 261 257 262 266 271 280 278 279
316 306 298 296 292 290 287 285 282 281 283 280 274 269 266 265 265 262 258 253 252 257 255 257 260 268 277 278 275 276 281 268 263 265 268 273 278 276
315 311 303 296 292 289 288 285 283 281 282 278 279 277 274 270 268 267 264 255 252 256 263 267 269 266 265 259 265 276 287 296 290 278 265 257 259 255
314 312 307 299 291 289 287 283 281 278 278 279 282 283 280 276 274 271 267 260 254 257 262 267 270 270 267 262 267 275 282 290 293 294 291 280 270 269
Height
1491 1491 1491 1492 1493 1494 1495 1497 1498 1497 1496 1497 1498 1499 1500 1502 1503 1504 1505 1506 1507 1508 1510 1510 1512 1513 1514 1514 1515 1515 1516 1516 1517 1517 1518 1518 1519 1519
1485 1485 1486 1486 1487 1488 1489 1490 1491 1492 1491 1491 1492 1493 1495 1496 1498 1499 1499 1500 1501 1503 1504 1505 1506 1507 1508 1509 1509 1510 1510 1511 1512 1512 1513 1513 1514 1514
1479 1479 1480 1481 1481 1482 1482 1483 1485 1486 1485 1485 1487 1488 1489 1490 1492 1493 1494 1495 1495 1496 1498 1498 1500 1501 1502 1503 1503 1504 1505 1505 1506 1507 1507 1508 1508 1509
1472 1472 1473 1474 1474 1475 1476 1477 1478 1479 1480 1480 1481 1482 1483 1485 1486 1487 1488 1489 1489 1490 1491 1492 1493 1494 1495 1496 1497 1498 1499 1499 1500 1501 1502 1502 1502 1503
1467 1467 1467 1468 1468 1469 1469 1470 1471 1473 1474 1474 1475 1476 1477 1478 1480 1481 1482 1483 1484 1484 1485 1486 1487 1488 1489 1490 1490 1491 1492 1493 1494 1495 1495 1496 1496 1497
1461 1461 1461 1462 1462 1463 1463 1463 1465 1466 1467 1469 1469 1470 1471 1472 1474 1475 1476 1477 1477 1478 1479 1480 1480 1481 1482 1483 1484 1484 1485 1486 1487 1488 1489 1489 1490 1491
1456 1456 1455 1456 1457 1457 1457 1457 1459 1460 1461 1462 1463 1465 1466 1467 1468 1469 1470 1470 1471 1472 1472 1473 1474 1474 1475 1476 1477 1477 1478 1479 1480 1481 1482 1483 1483 1484
1450 1450 1450 1451 1451 1451 1451 1452 1453 1454 1455 1456 1457 1458 1459 1461 1462 1463 1464 1464 1464 1465 1466 1466 1467 1467 1468 1469 1470 1471 1472 1473 1473 1474 1475 1476 1477 1477
1446 1445 1445 1445 1445 1445 1446 1446 1447 1448 1450 1451 1451 1451 1453 1454 1456 1457 1457 1458 1458 1459 1460 1459 1460 1461 1461 1462 1463 1464 1465 1466 1467 1468 1468 1469 1470 1470
1441 1441 1440 1439 1439 1440 1440 1440 1441 1441 1443 1444 1444 1445 1447 1448 1450 1451 1451 1452 1453 1454 1454 1454 1454 1454 1455 1455 1456 1457 1459 1459 1460 1461 1461 1462 1463 1463
1436 1436 1435 1434 1434 1435 1435 1434 1434 1435 1437 1438 1438 1439 1440 1442 1443 1445 1445 1446 1445 1446 1448 1448 1447 1448 1448 1448 1449 1450 1451 1452 1453 1454 1454 1455 1456 1456
1431 1430 1429 1429 1429 1429 1430 1429 1429 1430 1431 1431 1432 1432 1433 1434 1436 1438 1439 1439 1439 1439 1440 1442 1441 1442 1441 1441 1442 1443 1444 1445 1446 1447 1447 1448 1449 1449
1426 1425 1424 1423 1423 1424 1423 1423 1423 1424 1424 1425 1425 1425 1427 1428 1429 1431 1432 1433 1433 1433 1434 1435 1435 1436 1436 1434 1435 1436 1437 1438 1439 1439 1440 1441 1441 1442
1421 1420 1419 1419 1418 1418 1417 1417 1417 1418 1418 1418 1419 1419 1420 1421 1422 1424 1425 1426 1427 1427 1428 1429 1429 1430 1430 1429 1428 1429 1430 1431 1431 1432 1432 1433 1434 1434
1416 1414 1414 1413 1412 1412 1411 1411 1412 1412 1412 1412 1413 1413 1414 1415 1416 1417 1418 1420 1420 1421 1422 1423 1423 1423 1424 1423 1422 1423 1423 1424 1424 1425 1425 1426 1426 1426
1411 1409 1409 1408 1407 1406 1406 1406 1406 1406 1406 1406 1406 1407 1408 1409 1410 1411 1412 1413 1413 1414 1415 1416 1417 1417 1417 1417 1418 1417 1418 1417 1417 1418 1418 1418 1418 1418
1406 1405 1404 1403 1403 1402 1401 1401 1401 1401 1401 1401 1401 1401 1402 1403 1404 1405 1406 1407 1407 1407 1407 1409 1410 1411 1411 1411 1411 1411 1411 1411 1411 1411 1411 1410 1410 1411
1402 1401 1400 1399 1399 1398 1397 1396 1396 1395 1395 1395 1395 1396 1397 1397 1398 1399 1401 1401 1401 1401 1402 1402 1403 1404 1404 1404 1405 1404 1405 1404 1404 1404 1404 1403 1402 1403
1398 1397 1396 1396 1395 1394 1393 1392 1392 1391 1391 1391 1391 1391 1392 1393 1394 1394 1395 1396 1396 1396 1397 1397 1397 1397 1397 1397 1397 1399 1399 1398 1398 1397 1397 1397 1396 1395
1395 1394 1393 1392 1391 1390 1389 1388 1388 1387 1387 1387 1387 1387 1388 1388 1389 1389 1390 1390 1391 1391 1391 1392 1392 1392 1392 1392 1392 1392 1393 1393 1392 1391 1390 1390 1390 1390
1393 1391 1390 1389 1388 1387 1386 1385 1385 1384 1383 1383 1383 1384 1384 1384 1384 1385 1385 1385 1386 1386 1386 1386 1387 1388 1388 1388 1387 1386 1387 1387 1387 1386 1385 1384 1383 1382
1390 1388 1387 1386 1385 1384 1383 1382 1381 1381 1380 1380 1380 1380 1380 1380 1380 1380 1380 1380 1380 1381 1381 1382 1383 1383 1383 1383 1382 1381 1380 1381 1381 1381 1381 1380 1378 1376
1387 1385 1384 1383 1382 1381 1380 1379 1378 1377 1377 1377 1376 1376 1376 1375 1376 1376 1375 1375 1376 1376 1377 1377 1377 1378 1378 1378 1377 1376 1375 1375 1375 1374 1374 1374 1374 1374